{"data":{"norad_id":65040,"epoch":"2026-09-20T21:32:43.432224Z","epoch_age_seconds":85809,"freshness":"FRESH","line1":"1 65040U 25161AB  26263.89772491  .00021696  00000+0  65121-3 0  9997","line2":"2 65040  53.1588 105.5901 0000808  90.4054 269.7041 15.34408528 64140","mean_motion":15.34408528,"eccentricity":8.08e-5,"inclination_deg":53.1588,"raan_deg":105.5901,"arg_perigee_deg":90.4054,"mean_anomaly_deg":269.7041,"bstar":0.00065121,"rev_number":6414,"period_min":93.847236490333,"perigee_km":462.12515546792997,"apogee_km":463.23063115469,"semimajor_km":6840.8148933113,"source":"CELESTRAK","updated_at":"2026-09-21T09:00:35.496902Z"}}